[[{"header":{"parameterUnit":"m.s-1","parameterCategory":1,"la1":30.2991,"la2":30.254,"lo1":-89.0895,"lo2":-89.0444,"dy":0.0017,"dx":0.0017,"nx":28,"ny":28,"refTime":"2026-02-04T03:00:00:Z","depth":0,"parameterNumber":2,"parameterNumberName":"U-component_of_WINDS"},"data":[0,0,0,0,0,0,0,0,0,0,0,0,0,0,0,0,0,0,0,0,0,0,0,0,0,0,0,0,0,0,0,0,0,0,0,0,0,0,0,0,0,0,0,0,0,0,0,0,0,0,0,0,0,0,0,0,0,0,2.8441,2.8441,0,2.8429,2.8429,2.8428,2.8378,2.8377,2.8376,2.8375,2.8363,2.8364,2.8365,0,0,0,0,0,0,0,0,0,0,0,0,0,2.8421,2.8422,2.8441,2.844,2.844,2.8429,2.8429,2.8428,2.8378,2.8377,2.8376,2.8374,2.8363,2.8364,2.8365,0,0,0,0,0,0,0,0,0,0,0,0,0,2.8422,2.8422,2.8441,2.8414,2.8411,2.8429,2.8429,2.8428,2.8379,2.8377,2.8375,2.8374,2.8363,2.8364,2.8365,2.8407,0,0,2.8368,2.8369,0,0,0,0,0,0,0,0,2.8422,2.8422,2.8418,2.8416,2.8413,2.8403,2.8417,2.8421,2.8379,2.8391,2.8375,2.8373,2.8378,2.8378,2.8379,2.8407,2.8406,2.8369,2.8369,2.837,2.837,0,0,0,0,0,0,0,2.8422,2.8423,2.8436,2.8418,2.8415,2.8403,2.8401,2.8418,2.8395,2.839,2.8386,2.8386,2.8376,2.8378,2.8379,2.8406,2.8369,2.837,2.837,2.8371,2.8469,2.847,0,0,0,0,0,0,2.8425,2.8423,2.8436,2.8436,2.8413,2.8405,2.8403,2.8408,2.8394,2.839,2.8387,2.8383,2.8377,2.8377,2.8378,2.8427,2.837,2.8371,2.8372,2.8467,2.8469,2.8471,0,0,0,0,0,0,2.8425,2.8427,2.8437,2.8428,2.8429,2.8407,2.8413,2.8409,2.8411,2.8392,2.8388,2.8393,2.8376,2.8376,2.8401,2.8426,2.8371,2.8372,2.8464,2.8467,2.847,2.8525,0,0,0,0,0,0,2.8425,2.8427,2.8443,2.8429,2.8429,2.8459,2.8415,2.841,2.8413,2.8408,2.8397,2.8393,2.8374,2.8399,2.8402,2.8427,2.8373,2.8462,2.8466,2.8469,2.8521,2.853,2.8537,0,0,0,0,0,2.8424,2.8459,2.8444,2.8446,2.8448,2.8461,2.8461,2.8438,2.8415,2.8431,2.8419,2.8394,2.8423,2.8402,2.8404,2.843,2.846,2.8465,2.8469,2.8518,2.8528,2.8537,0,0,0,0,0,0,2.8476,2.8456,2.844,2.847,2.8468,2.8452,2.8471,2.845,2.8454,2.8449,2.8421,2.8419,2.8447,2.8441,2.8418,2.8471,2.8437,2.8442,2.8474,2.8484,2.8491,2.8492,2.8374,0,0,0,0,0,2.8491,2.8502,2.8485,2.8514,2.8513,2.8493,2.8497,2.848,2.8476,2.8475,2.8465,2.8462,2.8471,2.8477,2.8484,2.852,2.8518,2.854,2.8548,2.8554,2.8559,2.8578,2.8588,2.8485,2.8485,2.8485,0,0,2.8522,2.8512,2.8521,2.8524,2.852,2.8533,2.8492,2.8507,2.8517,2.8477,2.8499,2.8492,2.8487,2.8518,2.8531,2.8514,2.8587,2.856,2.8565,2.8566,2.8584,2.8594,2.8602,2.8488,2.8487,2.8487,0,0,2.8584,2.8579,2.8602,2.8599,2.8594,2.858,2.8586,2.8574,2.8568,2.8589,2.856,2.8572,2.8587,2.8585,2.8586,2.865,2.8627,2.8653,2.8695,2.8714,2.8722,2.873,2.8753,2.8761,2.8658,2.8658,2.8658,0,2.8623,2.8642,2.8617,2.8635,2.8637,2.8602,2.8627,2.8625,2.8622,2.8625,2.8606,2.8625,2.8619,2.8649,2.8665,2.8667,2.8673,2.8654,2.8723,2.873,2.8736,2.8758,2.8767,2.8661,2.8661,2.8661,2.866,0,2.869,2.8704,2.8724,2.8722,2.8726,2.8747,2.8727,2.8735,2.8718,2.8706,2.873,2.8722,2.8727,2.8733,2.8717,2.8762,2.8751,2.8728,2.8694,2.875,2.877,2.8778,2.8666,2.8665,2.8664,2.8663,0,0,2.8784,2.8769,2.8777,2.8776,2.8768,2.8778,2.8798,2.8803,2.8811,2.881,2.8827,2.8841,2.882,2.8822,2.8805,2.8822,2.8874,2.8797,2.8796,2.8812,2.8924,2.8941,2.8951,2.8859,2.8861,2.8862,2.8924,0,2.8844,2.8877,2.8856,2.8892,2.8905,2.8873,2.889,2.8887,2.8878,2.8887,2.8876,2.8887,2.8859,2.8859,2.8875,2.8864,2.8896,2.886,2.8874,2.8875,2.8876,2.8961,2.8979,2.9038,2.8932,2.8933,2.8934,0,2.8918,2.8921,2.8959,2.8949,2.8954,2.897,2.8973,2.8983,2.8979,2.8971,2.8974,2.8953,2.8972,2.8939,2.8966,2.8942,2.8947,2.8943,2.8944,2.8944,2.8908,2.8964,2.9056,2.9065,2.8946,2.8945,2.8944,0,2.8983,2.8997,2.9021,2.9021,2.9011,2.9023,2.9019,2.9014,2.9019,2.9023,2.9025,2.9031,2.9034,2.904,2.9021,2.8999,2.9051,2.9016,2.9045,2.9045,2.9057,2.9056,2.9152,2.9061,2.906,2.906,2.906,0,2.9052,2.9076,2.905,2.9065,2.9092,2.9068,2.9095,2.9088,2.9085,2.9098,2.9071,2.9084,2.9059,2.907,2.9056,2.9081,2.9083,2.9077,2.9073,2.9079,2.908,2.9082,2.9077,2.9063,2.9062,2.9062,2.9061,0,2.9128,2.9112,2.9136,2.9125,2.9123,2.9143,2.9133,2.9147,2.9136,2.9154,2.9156,2.9139,2.9151,2.9133,2.9143,2.9134,2.9168,2.9158,2.9169,2.9166,2.9196,2.9193,2.9295,2.9308,2.9209,2.921,2.9211,0,2.9173,2.9191,2.9182,2.9189,2.9187,2.9199,2.9204,2.9182,2.9189,2.9187,2.9201,2.9211,2.9217,2.9238,2.9226,2.9234,2.9223,2.9259,2.9224,2.9231,2.9224,2.9223,2.9225,2.9266,2.9267,2.9268,2.9269,0,2.9255,2.9246,2.9254,2.926,2.9267,2.9271,2.9272,2.928,2.9257,2.9266,2.9277,2.9282,2.9293,2.9303,2.9308,2.9304,2.9283,2.928,2.9287,2.9293,2.9299,2.9297,2.9188,2.9277,2.9276,2.9276,2.9275,2.9275,2.9317,2.9332,2.9328,2.9338,2.9337,2.934,2.9352,2.9343,2.9353,2.936,2.9346,2.9362,2.9359,2.9364,2.9363,2.9375,2.9359,2.9369,2.9372,2.9375,2.938,2.9298,2.9375,2.9375,2.9375,2.9375,2.9375,0,2.9397,2.9394,2.9404,2.9407,2.9415,2.9395,2.9396,2.9404,2.9418,2.9418,2.9425,2.9439,2.9449,2.9439,2.9447,2.9459,2.9449,2.9461,2.946,2.946,2.9393,2.9386,2.9469,2.9469,2.9469,2.9469,2.9469,2.9469,2.944,2.9465,2.9456,2.948,2.9476,2.9491,2.9493,2.9495,2.9495,2.9512,2.952,2.9514,2.951,2.9517,2.9526,2.9523,2.9527,2.9543,2.9536,2.9474,2.9464,2.9456,2.9449,2.9544,2.9544,2.9602,2.9603,2.9603]},{"header":{"parameterUnit":"m.s-1","parameterCategory":1,"la1":30.2991,"la2":30.254,"lo1":-89.0895,"lo2":-89.0444,"dy":0.0017,"dx":0.0017,"nx":28,"ny":28,"refTime":"2026-02-04T03:00:00:Z","depth":0,"parameterNumber":3,"parameterNumberName":"V-component_of_WINDS"},"data":[0,0,0,0,0,0,0,0,0,0,0,0,0,0,0,0,0,0,0,0,0,0,0,0,0,0,0,0,0,0,0,0,0,0,0,0,0,0,0,0,0,0,0,0,0,0,0,0,0,0,0,0,0,0,0,0,0,0,-8.0619,-8.0621,0,-8.0836,-8.0839,-8.0841,-8.0799,-8.0795,-8.0792,-8.0788,-8.1004,-8.1013,-8.1023,0,0,0,0,0,0,0,0,0,0,0,0,0,-8.0163,-8.0171,-8.0619,-8.0622,-8.0624,-8.0836,-8.0839,-8.0842,-8.08,-8.0795,-8.0791,-8.0786,-8.1001,-8.1012,-8.1023,0,0,0,0,0,0,0,0,0,0,0,0,0,-8.0368,-8.0174,-8.0618,-8.0629,-8.0632,-8.0835,-8.0839,-8.0843,-8.0801,-8.0795,-8.0789,-8.0784,-8.0997,-8.1011,-8.1025,-8.1229,0,0,-8.1068,-8.1074,0,0,0,0,0,0,0,0,-8.0357,-8.0385,-8.0625,-8.0629,-8.0633,-8.0785,-8.0757,-8.0972,-8.0802,-8.0737,-8.0788,-8.0781,-8.0936,-8.0954,-8.1008,-8.1239,-8.1248,-8.1069,-8.1078,-8.1084,-8.1088,0,0,0,0,0,0,0,-8.0343,-8.0376,-8.0705,-8.0628,-8.0633,-8.0621,-8.0644,-8.0798,-8.0866,-8.0742,-8.074,-8.0766,-8.0936,-8.0994,-8.1012,-8.1252,-8.1069,-8.1081,-8.109,-8.1096,-8.1661,-8.1668,0,0,0,0,0,0,-8.0326,-8.0364,-8.0698,-8.0711,-8.0478,-8.0634,-8.066,-8.0742,-8.0864,-8.0878,-8.0771,-8.0763,-8.0973,-8.0996,-8.102,-8.1268,-8.1084,-8.1097,-8.1105,-8.1655,-8.1663,-8.167,0,0,0,0,0,0,-8.0316,-8.0356,-8.0689,-8.0537,-8.0579,-8.0649,-8.0741,-8.0749,-8.0807,-8.0886,-8.0898,-8.0818,-8.0969,-8.1,-8.1178,-8.1274,-8.1103,-8.1116,-8.1647,-8.1657,-8.1666,-8.1764,0,0,0,0,0,0,-8.0303,-8.0353,-8.0432,-8.0539,-8.0587,-8.0846,-8.0747,-8.0758,-8.0832,-8.0824,-8.0933,-8.0946,-8.0967,-8.1157,-8.1192,-8.1291,-8.1127,-8.1639,-8.1652,-8.1663,-8.1752,-8.1776,-8.1796,0,0,0,0,0,-8.0287,-8.0449,-8.0436,-8.0477,-8.0688,-8.0851,-8.0878,-8.0901,-8.084,-8.092,-8.0971,-8.0942,-8.1258,-8.1176,-8.1214,-8.1319,-8.1633,-8.1648,-8.1662,-8.1743,-8.1771,-8.1796,0,0,0,0,0,0,-8.035,-8.0464,-8.045,-8.0653,-8.0743,-8.0844,-8.0945,-8.0931,-8.1039,-8.1027,-8.1049,-8.1074,-8.1255,-8.1304,-8.121,-8.1523,-8.1436,-8.146,-8.1484,-8.1512,-8.1534,-8.1518,-8.1139,0,0,0,0,0,-8.0388,-8.0512,-8.0604,-8.0774,-8.082,-8.0875,-8.0947,-8.0957,-8.105,-8.1087,-8.1151,-8.1241,-8.1361,-8.1439,-8.1553,-8.1759,-8.1782,-8.185,-8.1872,-8.1889,-8.1909,-8.2022,-8.2053,-8.1718,-8.1718,-8.1718,0,0,-8.0466,-8.0544,-8.0621,-8.0788,-8.0859,-8.0987,-8.0907,-8.1045,-8.1139,-8.1108,-8.1281,-8.133,-8.1432,-8.1625,-8.1713,-8.1672,-8.2007,-8.1908,-8.1921,-8.1932,-8.204,-8.2072,-8.21,-8.1728,-8.1727,-8.1725,0,0,-8.0675,-8.0746,-8.0896,-8.0969,-8.1078,-8.1114,-8.115,-8.1254,-8.1286,-8.1461,-8.144,-8.1551,-8.1756,-8.183,-8.1894,-8.2131,-8.2109,-8.2167,-8.2282,-8.2391,-8.2418,-8.2441,-8.2526,-8.2556,-8.2187,-8.2187,-8.2187,0,-8.0758,-8.0951,-8.0974,-8.1115,-8.1189,-8.1169,-8.132,-8.1389,-8.1529,-8.158,-8.1532,-8.179,-8.1857,-8.2067,-8.2125,-8.2178,-8.2219,-8.2156,-8.2412,-8.2436,-8.2458,-8.254,-8.2572,-8.2194,-8.2193,-8.2192,-8.2192,0,-8.1049,-8.1183,-8.129,-8.1429,-8.1514,-8.1659,-8.1703,-8.1787,-8.179,-8.183,-8.2007,-8.2087,-8.2217,-8.2267,-8.227,-8.2478,-8.245,-8.2407,-8.2321,-8.2497,-8.2573,-8.2605,-8.2203,-8.2201,-8.2199,-8.2197,0,0,-8.1303,-8.1454,-8.1493,-8.1556,-8.1675,-8.1778,-8.1921,-8.2051,-8.2123,-8.2219,-8.234,-8.2515,-8.2477,-8.2549,-8.256,-8.2657,-8.284,-8.2602,-8.2605,-8.2644,-8.3074,-8.3106,-8.3142,-8.2825,-8.2831,-8.2836,-8.3066,0,-8.1524,-8.178,-8.1805,-8.2033,-8.2157,-8.2139,-8.2264,-8.235,-8.2391,-8.2501,-8.2545,-8.2669,-8.2609,-8.2653,-8.2747,-8.2798,-8.2927,-8.2781,-8.2937,-8.2942,-8.2913,-8.3182,-8.3217,-8.3429,-8.3096,-8.3101,-8.3105,0,-8.1815,-8.1924,-8.2165,-8.2268,-8.2321,-8.2433,-8.2554,-8.2659,-8.2755,-8.2779,-8.2861,-8.2859,-8.3005,-8.2913,-8.3114,-8.3015,-8.308,-8.3114,-8.3123,-8.3139,-8.3035,-8.3206,-8.3498,-8.353,-8.3152,-8.3148,-8.3145,0,-8.1978,-8.2184,-8.2355,-8.2409,-8.2533,-8.2612,-8.2667,-8.2758,-8.2834,-8.2939,-8.2989,-8.3109,-8.3174,-8.3266,-8.3296,-8.3226,-8.3497,-8.3407,-8.3519,-8.3519,-8.3577,-8.3573,-8.3885,-8.3618,-8.3617,-8.3617,-8.3616,0,-8.2222,-8.2371,-8.243,-8.2536,-8.2702,-8.2728,-8.289,-8.2941,-8.3022,-8.3136,-8.3126,-8.3232,-8.3265,-8.3377,-8.3401,-8.3564,-8.3593,-8.3615,-8.362,-8.3617,-8.3615,-8.366,-8.3647,-8.3625,-8.3623,-8.3622,-8.362,0,-8.2432,-8.2478,-8.2664,-8.2767,-8.2796,-8.2913,-8.3,-8.3101,-8.314,-8.3284,-8.332,-8.3381,-8.3512,-8.3551,-8.3708,-8.3724,-8.3916,-8.3907,-8.3884,-8.3885,-8.3996,-8.3985,-8.4348,-8.4397,-8.4097,-8.41,-8.4102,0,-8.2586,-8.27,-8.2815,-8.2892,-8.2951,-8.3074,-8.3153,-8.3182,-8.3264,-8.3383,-8.347,-8.36,-8.3706,-8.3916,-8.3973,-8.4093,-8.4087,-8.4206,-8.4105,-8.4098,-8.409,-8.4083,-8.4095,-8.4225,-8.4228,-8.4231,-8.4233,0,-8.2853,-8.2871,-8.2985,-8.3109,-8.3204,-8.3302,-8.3396,-8.3458,-8.3501,-8.3594,-8.3729,-8.3812,-8.3973,-8.4102,-8.4224,-8.4278,-8.4263,-8.4264,-8.4297,-8.4295,-8.4278,-8.429,-8.3937,-8.4256,-8.4254,-8.4252,-8.4251,-8.425,-8.3041,-8.3142,-8.3239,-8.3367,-8.3442,-8.353,-8.3631,-8.3683,-8.3797,-8.3933,-8.3943,-8.4089,-8.4182,-8.4344,-8.4405,-8.4518,-8.4484,-8.453,-8.4542,-8.4554,-8.4564,-8.426,-8.454,-8.454,-8.4539,-8.4539,-8.4538,0,-8.3308,-8.337,-8.3488,-8.3621,-8.3722,-8.3701,-8.3804,-8.3889,-8.4019,-8.4108,-8.4213,-8.4368,-8.4493,-8.4561,-8.4685,-8.4763,-8.476,-8.4795,-8.479,-8.4803,-8.4587,-8.4547,-8.4796,-8.4796,-8.4796,-8.4796,-8.4796,-8.4796,-8.346,-8.363,-8.3659,-8.3865,-8.3925,-8.4071,-8.4132,-8.4213,-8.4284,-8.4459,-8.4564,-8.4608,-8.4688,-8.4818,-8.4932,-8.4948,-8.4994,-8.5034,-8.5047,-8.4844,-8.4818,-8.4793,-8.4755,-8.5044,-8.5044,-8.5253,-8.5255,-8.5256]}]]